Home > Weather > Syktyvkar > Past weeks

Flag for Russia Past Weather in Syktyvkar, Russia — Yesterday and Last 2 Weeks

Now
57 °F

Passing clouds.


Feels Like: 57 °F
Forecast: 47 / 60 °F
Wind: 1 mph from North

Location: Syktyvkar Airport

Current Time: Jun 26, 2016 at 7:42:12 AM

Latest Report: Jun 26, 2016 at 7:00 AM


Visibility: N/A

Pressure: 29.86 "Hg

Humidity: 94%

Dew Point: 55 °F

Location of SyktyvkarLocation

Past Weather in Syktyvkar — Graph

°F

Syktyvkar Temperature Yesterday

Maximum temperature yesterday: 70 °F (at 12:00 PM)
Minimum temperature yesterday: 43 °F (at 12:00 AM)
Average temperature yesterday: 58 °F

High & Low Weather Summary for the Past Weeks

 TemperatureHumidityPressure
High86 °F (Jun 19, 12:30 PM)94% (Jun 12, 1:00 AM)30.24 "Hg (Jun 12, 1:00 AM)
Low43 °F (Jun 25, 12:00 AM)25% (Jun 16, 2:00 PM)29.59 "Hg (Jun 13, 5:30 PM)
Average65 °F63%29.96 "Hg
* Reported Jun 11 6:00 AM — Jun 26 6:00 AM, Syktyvkar, Weather by CustomWeather, © 2016

Note: Actual official high and low records may vary slightly from our data, if they occured in-between our weather recording intervals... More about our weather records

Advertising

Syktyvkar Weather History for the Previous 24 Hours

Scroll right to see more
 ConditionsComfort  
Time TempWeatherWind HumidityBarometerVisibility
6:00 AM
Sun, Jun 26
55 °FSprinkles. Partly sunny.1 mph94%29.86 "Hg6 mi
5:30 AM54 °FScattered clouds.3 mph94%29.86 "Hg4 mi
5:00 AM55 °FPassing clouds.1 mph94%29.89 "Hg6 mi
4:30 AM54 °FPassing clouds.No wind94%29.89 "Hg6 mi
4:00 AM54 °FPassing clouds.No wind94%29.89 "Hg6 mi
3:30 AM52 °FPassing clouds.No wind94%29.89 "Hg4 mi
3:00 AM52 °FFog.1 mph94%29.89 "Hg2 mi
2:30 AM50 °FCool.No wind94%29.89 "Hg0 mi
2:00 AM50 °FScattered clouds.1 mph94%29.89 "Hg2 mi
1:30 AM52 °FPassing clouds.1 mph88%29.89 "Hg4 mi
1:00 AM52 °FPassing clouds.1 mph88%29.89 "Hg4 mi
12:30 AM54 °FCool.3 mph94%29.89 "Hg1 mi
12:00 AM54 °FCool.3 mph94%29.89 "Hg0 mi
11:30 PM
Sat, Jun 25
54 °FCool.3 mph88%29.89 "Hg1 mi
11:00 PM55 °FFog.3 mph88%29.89 "Hg4 mi
10:00 PM55 °FClear.3 mph88%29.92 "Hg10 mi
9:30 PM55 °FSprinkles. Passing clouds.3 mph94%29.92 "HgN/A
9:00 PM57 °FSprinkles. Scattered clouds.1 mph88%29.92 "HgN/A
8:30 PM57 °FPassing clouds.6 mph88%29.92 "HgN/A
8:00 PM57 °FPassing clouds.3 mph88%29.92 "HgN/A
7:30 PM57 °FPassing clouds.3 mph88%29.92 "HgN/A
7:00 PM57 °FScattered clouds.3 mph88%29.92 "HgN/A
6:30 PM59 °FScattered clouds.1 mph82%29.95 "HgN/A
6:00 PM59 °FScattered clouds.3 mph82%29.95 "HgN/A
5:30 PM59 °FSprinkles. Partly sunny.3 mph82%29.95 "Hg6 mi
5:00 PM61 °FThunderstorms. Partly sunny.6 mph72%29.98 "HgN/A
4:30 PM66 °FThunderstorms. Partly sunny.3 mph60%29.95 "HgN/A
4:00 PM68 °FScattered clouds.3 mph49%29.95 "HgN/A
3:30 PM70 °FScattered clouds.3 mph43%29.95 "HgN/A
3:00 PM70 °FPassing clouds.3 mph43%29.95 "HgN/A
2:30 PM66 °FScattered clouds.1 mph56%29.95 "HgN/A
2:00 PM63 °FSprinkles. Partly sunny.6 mph59%29.98 "Hg6 mi
1:00 PM64 °FSprinkles. Partly sunny.3 mph60%29.98 "HgN/A
12:30 PM70 °FPartly sunny.6 mph43%29.95 "HgN/A
12:00 PM70 °FPassing clouds.3 mph46%29.98 "HgN/A
11:30 AM66 °FPassing clouds.3 mph52%29.98 "HgN/A
11:00 AM64 °FScattered clouds.3 mph64%29.98 "HgN/A
10:30 AM59 °FScattered clouds.3 mph68%30.01 "HgN/A
10:00 AM61 °FScattered clouds.3 mph63%30.01 "HgN/A
9:30 AM63 °FScattered clouds.3 mph64%30.01 "HgN/A
9:00 AM63 °FPassing clouds.1 mph68%30.01 "HgN/A
8:30 AM59 °FPassing clouds.3 mph72%30.01 "HgN/A
8:00 AM55 °FScattered clouds.3 mph77%30.01 "HgN/A
7:30 AM55 °FScattered clouds.3 mph77%30.01 "HgN/A
7:00 AM54 °FScattered clouds.3 mph82%30.04 "HgN/A
Weather by CustomWeather, © 2016

See weather overviewHow to use our weather pages